Home   Weather   Rio Branco   Past weeks

Flag for Brazil Past Weather in Rio Branco, Acre, Brazil — Yesterday and Last 2 Weeks

Now
91 °F

Scattered clouds.


Feels Like: 97 °F
Forecast: 74 / 94 °F
Wind: 9 mph from Northeast

Location: Rio Branco Airport

Current Time: Oct 1, 2016 at 10:44:37 AM

Latest Report: Oct 1, 2016 at 10:00 AM


Visibility: N/A

Pressure: 29.89 "Hg

Humidity: 49%

Dew Point: 70 °F

Location of Rio BrancoLocation

Past Weather in Rio Branco — Graph

°F

Rio Branco Temperature Yesterday

Maximum temperature yesterday: 95 °F (at 2:00 PM)
Minimum temperature yesterday: 72 °F (at 1:00 AM)
Average temperature yesterday: 81 °F

High & Low Weather Summary for the Past Weeks

 TemperatureHumidityPressure
High95 °F (Sep 18, 1:00 PM)100% (Sep 17, 4:00 AM)30.60 "Hg (Sep 17, 4:00 AM)
Low43 °F (Sep 24, 1:00 PM)36% (Sep 21, 1:00 PM)29.68 "Hg (Sep 30, 5:00 PM)
Average79 °F76%29.91 "Hg
* Reported Sep 16 9:00 AM — Oct 1 9:00 AM, Rio Branco, Weather by CustomWeather, © 2016

Note: Actual official high and low records may vary slightly from our data, if they occured in-between our weather recording intervals... More about our weather records

Advertising

Rio Branco Weather History for the Previous 24 Hours

Scroll right to see more
 ConditionsComfort  
Time TempWeatherWind HumidityBarometerVisibility
9:00 AM
Sat, Oct 1
88 °FSunny.9 mph55%29.92 "Hg10 mi
8:00 AM82 °FSunny.5 mph70%29.92 "Hg10 mi
7:00 AM81 °FSunny.3 mph74%29.89 "Hg10 mi
6:00 AM75 °FSunny.3 mph89%29.86 "Hg10 mi
5:00 AM73 °FClear.3 mph89%29.83 "Hg10 mi
4:00 AM75 °FClear.3 mph83%29.80 "Hg10 mi
3:00 AM75 °FClear.No wind83%29.77 "Hg10 mi
2:00 AM77 °FClear.3 mph79%29.77 "Hg10 mi
1:00 AM77 °FClear.3 mph79%29.77 "Hg10 mi
12:00 AM77 °FClear.2 mph79%29.77 "Hg10 mi
11:00 PM
Fri, Sep 30
77 °FClear.2 mph79%29.80 "Hg10 mi
10:00 PM81 °FClear.2 mph70%29.83 "Hg10 mi
9:00 PM81 °FPassing clouds.6 mph70%29.80 "HgN/A
8:00 PM81 °FPassing clouds.5 mph70%29.77 "HgN/A
7:00 PM81 °FPassing clouds.2 mph70%29.74 "HgN/A
6:00 PM82 °FPassing clouds.2 mph66%29.71 "HgN/A
5:00 PM84 °FPartly sunny.5 mph58%29.68 "HgN/A
4:00 PM88 °FScattered showers. Scattered clouds.6 mph52%N/AN/A
3:00 PM91 °FScattered showers. Scattered clouds.3 mph44%N/AN/A
2:00 PM95 °FScattered clouds.5 mph39%29.74 "HgN/A
1:00 PM93 °FScattered clouds.6 mph44%29.80 "HgN/A
12:00 PM91 °FScattered clouds.7 mph46%29.83 "HgN/A
11:00 AM88 °FSunny.6 mph52%29.86 "Hg10 mi
10:00 AM86 °FSunny.7 mph59%29.89 "Hg10 mi
Weather by CustomWeather, © 2016

See weather overviewHow to use our weather pages